FW1737 Weather Reports


Display with metric or nautical units.
time (UTC)temp
F
wind
direction
speed
MPH
gust
MPH
rain 1hr
in
rain 24hr
in
rain mn
in
humidity
%
barometer
mb
20260906023047 56 31 6.0 14.0 0.02 5.13 0.04 99 1002.4
20260906021543 56 43 8.0 19.0 0.04 5.13 0.04 99 1002.1
20260906020047 56 34 6.0 18.0 0.04 5.13 0.04 99 1002.4
20260906014552 56 26 9.0 19.0 0.03 5.12 0.03 99 1002.5
20260906013043 57 34 9.0 19.0 0.02 5.11 0.02 99 1002.5
20260906011541 57 55 12.0 21.0 0.00 5.09 0.00 98 1002.5
20260906010037 57 63 8.0 16.0 0.00 5.09 0.00 98 1002.5
20260906004541 57 32 8.0 14.0 0.00 5.09 0.00 98 1002.5
20260906003047 57 48 9.0 24.0 0.00 5.09 0.00 98 1002.4
20260906001533 57 38 7.0 23.0 0.00 5.09 0.00 98 1002.6
20260906000033 57 34 10.0 17.0 0.00 5.09 0.00 97 1002.5
20260905234532 57 51 11.0 17.0 0.00 5.09 0.00 98 1002.5
20260905233031 57 48 8.0 20.0 0.00 5.09 0.00 97 1002.5
20260905231530 57 65 4.0 18.0 0.00 5.09 0.00 98 1002.5
20260905230124 57 24 8.0 15.0 0.00 5.09 0.00 98 1002.4
20260905080050 56 57 21.0 41.0 0.06 5.09 0.06 99 999.4
20260905074539 57 57 17.0 35.0 0.00 5.04 0.00 98 999.7
20260905034559 62 313 1.0 3.0 0.79 5.69 0.65 100 1001.6
20260905033102 62 236 0.0 8.0 0.92 5.62 0.57 100 1001.7
20260905031556 62 53 3.0 11.0 1.12 5.37 0.33 100 1001.7
20260905030106 62 53 6.0 14.0 1.31 5.05 0.01 100 1001.7
20260905024555 63 40 9.0 23.0 1.29 4.90 4.90 100 1001.6